Location: RyutenAO
(34.8939°N, 134.0022°E)
Time: 09:37:55
(UTC+09:00)

Oscar 19 - Pass Details

Date: 05 April 2023
Orbit: 773 x 788 km, 98.8° (Epoch: 29 May)

Event Time Altitude Azimuth Distance (km) Brightness Sun altitude
Rises 04:43:30 0° 4° (N) 3,270 14.2 -13.4°
Reaches altitude 10° 04:45:56 10° 357° (N) 2,341 13.3 -13.0°
Maximum altitude 04:50:44 41° 289° (WNW) 1,128 11.1 -12.0°
Drops below altitude 10° 04:55:32 10° 220° (SW) 2,336 12.6 -11.1°
Enters shadow 04:56:04 - 218° (SW) 2,537 12.8 -11.0°
